Kezdőlap
METAR-TAF:

METAR-TAF

Repülőterek :

Hutchinson Municipal Airport (Butler Field)

Hutchinson, Minnesota, Amerikai Egyesült Államok

földrajzi szélesség: 44-52N, földrajzi hosszúság: 094-23W, magasság: 323 m

Jelenlegi meteorológiai megfigyelések

A jelentés 21 perccel ezelõtt készült, 07:15 UTC
Szélcsend
Hőmérséklet 23°C
Páratartalom 94%
Légköri nyomás 1011 hPa
Látótávolság: 16.1 km
Szakadozott felhőzet 7000 lábon
Szakadozott felhőzet 9000 lábon
zivatar a közelben

METAR: KHCD 100715Z AUTO 00000KT 10SM VCTS BKN070 BKN090 23/22 A2985 RMK AO2 LTG DSNT NW THRU E T02300219

Idő: 02:36 (07:36 UTC)


TAF: hiányzik

Meteorológiai megfigyelések és előrejelzések több, mint 4000 repülőtéren (METAR és TAF jelentéseket).

A térképen piros és sárga pontok jelzik az elérhető meteorológiai állomásokat.

Mozgassa az egeret a pont fölött, hogy megjelenjen az állomás neve.

Azután kattintson az időjárási megfigyelések és előrejelzések megtekintéséhez.

A térkép megváltoztatása: kattintson a fekete keresztel jelölt zöld gombra ráközelítéshez, a vonallal jelölt zöld gombra távolításhoz, vagy a zöld nyilakra a szomszédos térképek eléréséhez.


METAR-TAF: